Location: Canet
(43.3261°N, 5.3723°E)
Time: 18:41:55
(UTC+00:00)

Cosmos 2278 Rocket - Pass Details

Date: 24 January 2021
Orbit: 840 x 847 km, 71.0° (Epoch: 07 March)

Event Time Altitude Azimuth Distance (km) Brightness Sun altitude
Rises 17:19:19 0° 152° (SSE) 3,387 5.2 -7.5°
Reaches altitude 10° 17:22:54 10° 129° (SE) 2,460 4.3 -8.1°
Maximum altitude 17:25:48 14° 97° (E) 2,163 3.8 -8.6°
Enters shadow 17:28:19 11° 70° (ENE) 2,394 3.9 -9.0°
